Flag for Canada Weather past 2 weeks in Coquitlam, British Columbia, Canada

Now
61 °F

Cool.


Feels Like: 61 °F
Forecast: 64 / 87 °F
Wind: 2 mph from West

Location: P. Meadows Coastal Station

Current Time: Jul 3, 2015 at 5:42:32 AM

Latest Report: Jul 3, 2015 at 5:00 AM


Visibility: N/A

Pressure: 29.95 "Hg

Humidity: 82%

Dew point: 56 °F

Location of CoquitlamLocation

Historic Weather in Coquitlam — Graph

°F

Coquitlam temperature yesterday

Maximum temperature yesterday: 92 °F (at 5:00 PM)
Minimum temperature yesterday: 62 °F (at 5:00 AM)
Average temperature yesterday: 77 °F

Past Weeks' High & Low Weather Summary

 TemperatureHumidityPressure
High92 °F (Jul 2, 5:00 PM)94% (Jun 21, 5:00 AM)30.16 "Hg (Jun 21, 5:00 AM)
Low50 °F (Jun 21, 4:00 AM)23% (Jun 23, 7:00 PM)29.87 "Hg (Jun 21, 2:00 PM)
Average70 °F59%30.02 "Hg
* Reported Jun 18 4:00 AM — Jul 3 4:00 AM, Coquitlam, Weather by CustomWeather, © 2015

Note: Actual official high and low records may vary slightly from our data, if they occured in-between our weather recording intervals... More about our weather records

Advertising

Coquitlam weather history for previous 24 hours

 ConditionsComfort  
Time TempWeatherWind HumidityBarometerVisibility
4:00 AM
Fri, Jul 3
63 °FMild.1 mph81%29.93 "HgN/A
3:00 AM64 °FMild.3 mph76%29.93 "HgN/A
2:00 AM66 °FMild.2 mph72%29.93 "HgN/A
1:00 AM67 °FMild.1 mph67%29.92 "HgN/A
12:00 AM70 °FMild.3 mph62%29.92 "HgN/A
11:00 PM
Thu, Jul 2
72 °FMild.3 mph60%29.91 "HgN/A
10:00 PM75 °FMild.3 mph46%29.91 "HgN/A
9:00 PM78 °FWarm.3 mph45%29.90 "HgN/A
8:00 PM84 °FPleasantly warm.3 mph37%29.91 "HgN/A
7:00 PM89 °FHot.3 mph32%29.91 "HgN/A
6:00 PM91 °FHot.5 mph28%29.92 "HgN/A
5:00 PM92 °FHot.5 mph28%29.93 "HgN/A
4:00 PM91 °FHot.7 mph31%29.95 "HgN/A
3:00 PM89 °FHot.7 mph34%29.96 "HgN/A
2:00 PM88 °FHot.5 mph36%29.98 "HgN/A
1:00 PM85 °FPleasantly warm.5 mph37%29.99 "HgN/A
12:00 PM85 °FWarm.3 mph43%30.00 "HgN/A
11:00 AM82 °FWarm.3 mph47%30.01 "HgN/A
10:00 AM78 °FWarm.2 mph54%30.01 "HgN/A
9:00 AM74 °FMild.2 mph61%30.02 "HgN/A
8:00 AM71 °FMild.1 mph71%30.02 "HgN/A
7:00 AM69 °FMild.1 mph72%30.01 "HgN/A
6:00 AM63 °FMild.No wind92%30.00 "HgN/A
5:00 AM62 °FCool.No wind89%29.99 "HgN/A
Weather by CustomWeather, © 2015

See weather overviewHow to use our weather pages